Flag for USA

Past Weather in Terre Haute, Indiana, USA — Yesterday and Last 2 Weeks

Now
66 °F

Clear.


Feels Like: 66 °F
Forecast: 81 / 65 °F
Wind: 10 mph from Southwest

Location: Terre Haute International Airport - Hulman Field
Current Time: Sep 27, 2020 at 2:01:47 am
Latest Report: Sep 27, 2020 at 12:53 am
Visibility: 10 mi
Pressure29.85 "Hg
Humidity: 81%
Dew Point: 60 °F
Location of Terre HauteLocation

Past Weather in Terre Haute — Graph

°F

Terre Haute Temperature Yesterday

Maximum temperature yesterday: 78 °F (at 3:53 pm)
Minimum temperature yesterday: 57 °F (at 2:53 am)
Average temperature yesterday: 67 °F

High & Low Weather Summary for the Past Weeks

 TemperatureHumidityPressure
High83 °F (Sep 13, 3:53 pm)100% (Sep 25, 5:53 am)30.42 "Hg (Sep 25, 5:53 am)
Low37 °F (Sep 19, 5:53 am)18% (Sep 20, 4:53 pm)29.85 "Hg (Sep 26, 6:53 pm)
Average63 °F72%30.12 "Hg
* Reported Sep 12 12:53 am — Sep 27 12:53 am, Terre Haute. Weather by CustomWeather, © 2020

Note: Actual official high and low records may vary slightly from our data, if they occured in-between our weather recording intervals... More about our weather records

Terre Haute Weather History for the Previous 24 Hours

Scroll right to see more
 ConditionsComfort  
Time TempWeatherWind HumidityBarometerVisibility
12:53 am
Sun, Sep 27
66 °FClear.10 mph81%29.85 "Hg10 mi
11:53 pm
Sat, Sep 26
66 °FClear.10 mph81%29.85 "Hg10 mi
10:53 pm66 °FClear.9 mph81%29.86 "Hg10 mi
9:53 pm66 °FClear.7 mph78%29.86 "Hg10 mi
8:53 pm68 °FClear.8 mph73%29.86 "Hg10 mi
7:53 pm71 °FClear.9 mph66%29.85 "Hg10 mi
6:53 pm75 °FSunny.14 mph58%29.85 "Hg10 mi
5:53 pm78 °FSunny.14 mph52%29.85 "Hg10 mi
4:53 pm78 °FSunny.17 mph50%29.85 "Hg10 mi
3:53 pm78 °FSunny.13 mph52%29.87 "Hg10 mi
2:53 pm77 °FSunny.12 mph54%29.89 "Hg10 mi
2:03 pm75 °FScattered clouds.14 mph58%29.93 "Hg10 mi
1:53 pm74 °FPartly sunny.14 mph60%29.93 "Hg10 mi
12:53 pm70 °FOvercast.13 mph68%29.95 "Hg10 mi
12:36 pm69 °FOvercast.12 mph70%29.96 "Hg10 mi
11:53 am68 °FOvercast.10 mph76%29.96 "Hg10 mi
10:53 am65 °FOvercast.9 mph85%29.98 "Hg10 mi
10:31 am64 °FLow clouds.10 mph87%29.98 "Hg8 mi
9:53 am65 °FOvercast.10 mph85%29.98 "Hg9 mi
8:53 am63 °FLow clouds.12 mph90%29.97 "Hg7 mi
7:53 am63 °FLow clouds.10 mph90%29.96 "Hg10 mi
7:03 am62 °FPassing clouds.6 mph90%29.97 "Hg9 mi
6:53 am61 °FPassing clouds.7 mph90%29.96 "Hg9 mi
6:28 am62 °FPassing clouds.6 mph90%29.96 "Hg10 mi
5:53 am62 °FPassing clouds.6 mph93%29.95 "Hg10 mi
5:05 am62 °FPassing clouds.6 mph90%29.96 "Hg10 mi
4:53 am60 °FPassing clouds.6 mph93%29.94 "Hg10 mi
3:53 am60 °FClear.6 mph93%29.94 "Hg10 mi
2:53 am57 °FClear.No wind93%29.94 "Hg7 mi
Weather by CustomWeather, © 2020

See weather overview